Weather History for PAPG - September, 2013

Change the Weather History Date:

Sunday, September 22, 2013

  Actual Average Record
Temperature  
Mean Temperature 50 °F -  
Max Temperature 53 °F 52 °F 80 °F (2001)
Min Temperature 48 °F 42 °F 37 °F (1984)
Degree Days  
Heating Degree Days 14    
Moisture  
Dew Point 44 °F    
Average Humidity 75    
Maximum Humidity 93    
Minimum Humidity 62    
Precipitation  
Precipitation 0.40 in - - ()
Sea Level Pressure  
Sea Level Pressure 29.04 in    
Wind  
Wind Speed 9 mph (ESE)    
Max Wind Speed 15 mph    
Max Gust Speed 28 mph    
Visibility 9 miles    
Events Rain    
Averages and records for this station are not official NWS values.
T = Trace of Precipitation, MM = Missing Value Source: NWS Daily Summary

Daily Weather History Graph

Daily Weather History Graph

Search for Another Location

Airport or City:

Trip Planner

Search our weather history database for the weather conditions in past years. The results will help you decide how hot, cold, wet, or windy it might be!

Date:

Astronomy

Sep. 22, 2013 Rise Set
Actual Time 6:37 AM AKDT 6:49 PM AKDT
Civil Twilight 5:59 AM AKDT 7:27 PM AKDT
Nautical Twilight 5:14 AM AKDT 8:12 PM AKDT
Astronomical Twilight 4:26 AM AKDT 9:00 PM AKDT
Moon 7:54 PM AKDT (9/22) 10:52 AM AKDT (9/22)
Length of Visible Light 13h 27m
Length of Day
12h 11m
Waning Gibbous, 87% of the Moon is Illuminated
Sep 22
Waning Gibbous
Sep 26
Last Quarter
Oct 4
New
Oct 11
First Quarter
Oct 18
Full

Hourly Weather History & Observations

Time (AKDT) Temp. Dew Point Humidity Pressure Visibility Wind Dir Wind Speed Gust Speed Precip Events Conditions
12:56 AM 51.8 °F 39.2 °F 62% 29.05 in 10.0 mi East 11.5 mph 21.9 mph 0.01 in   Overcast
1:16 AM 51.8 °F 39.2 °F 62% 29.05 in 10.0 mi ESE 10.4 mph 24.2 mph N/A   Overcast
1:56 AM 51.8 °F 39.2 °F 62% 29.03 in 10.0 mi ESE 5.8 mph 27.6 mph N/A   Overcast
2:16 AM 51.8 °F 41.0 °F 67% 29.03 in 10.0 mi East 12.7 mph 25.3 mph N/A   Overcast
2:36 AM 51.8 °F 39.2 °F 62% 29.02 in 10.0 mi East 12.7 mph 23.0 mph N/A   Overcast
3:16 AM 51.8 °F 41.0 °F 67% 29.00 in 10.0 mi SE 10.4 mph 23.0 mph N/A   Overcast
3:36 AM 51.8 °F 39.2 °F 62% 28.99 in 10.0 mi ESE 13.8 mph 21.9 mph N/A   Overcast
3:56 AM 51.8 °F 39.2 °F 62% 28.99 in 10.0 mi ESE 10.4 mph 23.0 mph N/A   Overcast
4:16 AM 51.8 °F 39.2 °F 62% 28.99 in 10.0 mi SE 10.4 mph 23.0 mph N/A   Mostly Cloudy
4:36 AM 51.8 °F 39.2 °F 62% 28.99 in 10.0 mi ESE 9.2 mph - N/A   Mostly Cloudy
5:16 AM 51.8 °F 41.0 °F 67% 28.98 in 10.0 mi ESE 10.4 mph 18.4 mph N/A   Overcast
5:36 AM 50.0 °F 42.8 °F 76% 28.98 in 10.0 mi ESE 9.2 mph 18.4 mph N/A   Overcast
6:36 AM 51.8 °F 42.8 °F 71% 28.98 in 10.0 mi ESE 10.4 mph 18.4 mph N/A   Overcast
6:56 AM 51.8 °F 42.8 °F 71% 28.98 in 10.0 mi ESE 10.4 mph 19.6 mph N/A   Overcast
7:16 AM 53.6 °F 41.0 °F 62% 28.97 in 10.0 mi ESE 12.7 mph 18.4 mph N/A   Overcast
7:36 AM 53.6 °F 41.0 °F 62% 28.97 in 10.0 mi ESE 13.8 mph 21.9 mph N/A   Overcast
8:16 AM 51.8 °F 42.8 °F 71% 28.99 in 10.0 mi ESE 6.9 mph - N/A   Overcast
8:56 AM 51.8 °F 42.8 °F 71% 28.99 in 10.0 mi ESE 15.0 mph 18.4 mph N/A   Overcast
9:16 AM 51.8 °F 42.8 °F 71% 28.99 in 10.0 mi ESE 11.5 mph 19.6 mph N/A   Overcast
9:36 AM 51.8 °F 42.8 °F 71% 29.00 in 10.0 mi ESE 10.4 mph 17.3 mph N/A   Overcast
9:56 AM 51.8 °F 42.8 °F 71% 29.00 in 10.0 mi ESE 8.1 mph 21.9 mph N/A   Overcast
10:16 AM 51.8 °F 44.6 °F 76% 29.00 in 10.0 mi East 6.9 mph 19.6 mph 0.01 in   Overcast
10:36 AM 51.8 °F 44.6 °F 76% 29.01 in 10.0 mi ESE 9.2 mph 16.1 mph 0.01 in   Overcast
10:56 AM 51.8 °F 44.6 °F 76% 29.01 in 10.0 mi ESE 12.7 mph 19.6 mph 0.01 in   Overcast
11:36 AM 51.8 °F 44.6 °F 76% 29.01 in 10.0 mi East 8.1 mph 16.1 mph 0.02 in   Overcast
11:56 AM 51.8 °F 44.6 °F 76% 29.01 in 10.0 mi ESE 11.5 mph 18.4 mph 0.02 in   Overcast
12:56 PM 53.6 °F 44.6 °F 72% 29.01 in 10.0 mi ESE 9.2 mph 16.1 mph 0.01 in   Overcast
1:36 PM 53.6 °F 44.6 °F 72% 29.02 in 10.0 mi ESE 10.4 mph 19.6 mph 0.01 in   Overcast
1:56 PM 53.6 °F 44.6 °F 72% 29.02 in 10.0 mi East 9.2 mph 20.7 mph 0.01 in   Overcast
2:16 PM 53.6 °F 46.4 °F 77% 29.03 in 10.0 mi ESE 13.8 mph 20.7 mph 0.01 in   Overcast
2:36 PM 53.6 °F 44.6 °F 72% 29.04 in 10.0 mi SE 10.4 mph 17.3 mph 0.02 in   Overcast
2:56 PM 53.6 °F 44.6 °F 72% 29.04 in 6.0 mi ESE 8.1 mph - 0.04 in   Overcast
3:16 PM 51.8 °F 46.4 °F 82% 29.04 in 6.0 mi ESE 6.9 mph - 0.01 in   Overcast
3:36 PM 51.8 °F 46.4 °F 82% 29.05 in 6.0 mi SE 6.9 mph 18.4 mph 0.03 in   Overcast
3:54 PM 51.8 °F 46.4 °F 82% 29.06 in 5.0 mi Calm Calm - N/A Rain Light Rain
4:16 PM 51.8 °F 46.4 °F 82% 29.06 in 5.0 mi ESE 5.8 mph - N/A   Overcast
4:36 PM 51.8 °F 46.4 °F 82% 29.07 in 5.0 mi SE 3.5 mph - N/A   Overcast
4:56 PM 51.8 °F 46.4 °F 82% 29.07 in 7.0 mi East 4.6 mph - N/A   Overcast
5:36 PM 51.8 °F 46.4 °F 82% 29.08 in 7.0 mi ESE 3.5 mph - N/A   Overcast
5:56 PM 51.8 °F 46.4 °F 82% 29.09 in 5.0 mi SE 4.6 mph - 0.07 in   Overcast
6:16 PM 51.8 °F 46.4 °F 82% 29.10 in 5.0 mi Calm Calm - 0.06 in   Overcast
6:36 PM 51.8 °F 46.4 °F 82% 29.10 in 5.0 mi Calm Calm - 0.10 in   Overcast
7:16 PM 50.0 °F 46.4 °F 87% 29.12 in 5.0 mi Calm Calm - N/A   Overcast
7:36 PM 50.0 °F 46.4 °F 87% 29.13 in 5.0 mi Calm Calm - N/A   Overcast
7:56 PM 50.0 °F 46.4 °F 87% 29.13 in 7.0 mi Calm Calm - N/A   Overcast
8:56 PM 48.2 °F 46.4 °F 93% 29.16 in 7.0 mi South 3.5 mph - 0.07 in   Overcast
9:56 PM 48.2 °F 44.6 °F 87% 29.18 in 7.0 mi ESE 4.6 mph - 0.02 in   Overcast
10:36 PM 48.2 °F 44.6 °F 87% 29.20 in 10.0 mi East 5.8 mph - 0.01 in   Overcast
10:56 PM 48.2 °F 44.6 °F 87% 29.21 in 10.0 mi ESE 9.2 mph - 0.01 in   Overcast
11:56 PM 48.2 °F 42.8 °F 82% 29.23 in 10.0 mi Calm Calm - N/A   Overcast